CW0565 Weather Reports


time (UTC)temp
C
wind
direction
speed
KPH
gust
KPH
rain 1hr
cm
rain 24hr
cm
rain mn
cm
humidity
%
barometer
mb
20260831140009 20 148 6.4 16.1 0.00 0.00 0.00 54 1003.3
20260831134509 20 175 8.0 16.1 0.00 0.00 0.00 51 1003.3
20260831133009 19 166 9.7 16.1 0.00 0.00 0.00 59 1003.4
20260831131510 18 143 6.4 14.5 0.00 0.00 0.00 64 1003.4
20260831130009 17 189 11.3 17.7 0.00 0.00 0.00 66 1003.5
20260831124510 17 185 11.3 20.9 0.00 0.00 0.00 66 1003.6
20260831123014 17 188 9.7 17.7 0.00 0.00 0.00 64 1003.6
20260831121513 17 156 16.1 19.3 0.00 0.00 0.00 62 1003.6
20260831120011 17 161 11.3 19.3 0.00 0.00 0.00 62 1003.6
20260831114511 18 185 6.4 17.7 0.00 0.00 0.00 54 1003.4
20260831113010 18 129 11.3 24.1 0.00 0.00 0.00 59 1003.4
20260831111510 18 146 9.7 20.9 0.00 0.00 0.00 57 1003.4
20260831110013 18 148 6.4 11.3 0.00 0.00 0.00 55 1003.4
20260831104520 18 190 8.0 17.7 0.00 0.00 0.00 54 1003.5
20260831103015 18 163 9.7 17.7 0.00 0.00 0.00 54 1003.5
20260831101510 18 142 8.0 16.1 0.00 0.00 0.00 55 1003.7
20260831094527 17 170 11.3 16.1 0.00 0.00 0.00 58 1003.6
20260831093033 17 163 6.4 11.3 0.00 0.00 0.00 56 1003.6
20260831091509 17 169 6.4 12.9 0.00 0.00 0.00 59 1003.6
20260831081511 15 155 1.6 4.8 0.00 0.00 0.00 68 1003.9
20260831074510 17 155 0.0 3.2 0.00 0.00 0.00 62 1003.9
20260831073010 15 155 0.0 1.6 0.00 0.00 0.00 71 1004.0
20260831071525 15 157 0.0 1.6 0.00 0.00 0.00 71 1004.0
20260831070011 13 155 0.0 1.6 0.00 0.00 0.00 75 1004.1
20260831064509 13 155 0.0 3.2 0.00 0.00 0.00 80 1004.2
20260831054510 9 156 0.0 0.0 0.00 0.03 0.00 92 1004.3
20260831051516 8 155 3.2 8.0 0.00 0.03 0.00 90 1004.1
20260831044510 9 156 0.0 3.2 0.00 0.03 0.00 89 1004.1
20260831043010 10 155 0.0 4.8 0.00 0.03 0.00 88 1003.8
20260831034509 11 155 0.0 3.2 0.00 0.03 0.00 86 1003.9
20260831033018 11 155 4.8 11.3 0.00 0.03 0.00 84 1003.9
20260831031511 11 142 6.4 12.9 0.00 0.03 0.00 85 1004.0
20260831024512 11 82 0.0 3.2 0.00 0.03 0.00 82 1003.8
20260831023014 11 82 3.2 9.7 0.00 0.03 0.00 82 1003.8
20260831021515 11 156 0.0 4.8 0.00 0.03 0.00 81 1003.9
20260831014509 12 154 1.6 11.3 0.00 0.03 0.00 80 1003.9
20260831013010 12 171 6.4 11.3 0.00 0.03 0.00 81 1004.1
20260831011510 12 172 8.0 11.3 0.00 0.03 0.00 81 1004.0
20260831010011 12 171 1.6 8.0 0.00 0.03 0.00 81 1004.0
20260831004510 12 173 6.4 9.7 0.00 0.03 0.00 81 1004.2
20260831003017 12 175 8.0 12.9 0.00 0.03 0.00 81 1004.2
20260831001511 12 165 6.4 12.9 0.00 0.03 0.00 81 1004.2
20260831000016 12 165 6.4 9.7 0.00 0.03 0.00 81 1004.3
20260830234509 12 229 1.6 6.4 0.00 0.03 0.00 79 1004.2
20260830233010 12 227 4.8 9.7 0.00 0.03 0.00 79 1004.3
20260830231515 12 230 8.0 14.5 0.00 0.03 0.00 79 1004.2
20260830230009 12 237 6.4 17.7 0.00 0.03 0.00 79 1004.1
20260830224510 13 250 3.2 11.3 0.00 0.05 0.00 79 1003.9
20260830223009 13 226 4.8 11.3 0.00 0.05 0.00 79 1004.0
20260830221510 13 229 3.2 12.9 0.00 0.05 0.00 79 1003.9
20260830220010 13 229 6.4 16.1 0.00 0.05 0.05 79 1003.8
20260830214510 13 227 4.8 9.7 0.00 0.05 0.05 79 1003.8
20260830213010 13 266 1.6 17.7 0.00 0.05 0.05 79 1003.8
20260830211510 13 241 1.6 6.4 0.00 0.05 0.05 79 1003.7
20260830210010 13 249 0.0 4.8 0.00 0.05 0.05 78 1003.6
20260830204515 14 250 4.8 8.0 0.00 0.05 0.05 77 1003.5
20260830203013 14 238 0.0 6.4 0.00 0.05 0.05 77 1003.4
20260830201509 14 242 3.2 12.9 0.00 0.05 0.05 77 1003.3
20260830200009 14 247 1.6 4.8 0.00 0.05 0.05 77 1003.1
20260830194509 15 249 0.0 4.8 0.00 0.05 0.05 75 1003.0
20260830193022 15 294 3.2 14.5 0.00 0.05 0.05 74 1002.7
20260830191523 15 266 6.4 12.9 0.00 0.05 0.05 73 1002.7
20260830190010 16 248 4.8 12.9 0.00 0.05 0.05 73 1002.6
20260830184517 16 232 6.4 16.1 0.00 0.05 0.05 72 1002.4
20260830183009 16 204 3.2 14.5 0.00 0.05 0.05 72 1002.2
20260830181508 17 244 9.7 17.7 0.00 0.05 0.05 70 1002.1
20260830180014 17 244 9.7 16.1 0.00 0.08 0.05 68 1002.0
20260830174510 18 225 8.0 22.5 0.00 0.08 0.05 67 1001.9
20260830173009 18 241 4.8 22.5 0.00 0.08 0.05 66 1001.5
20260830171510 19 246 9.7 19.3 0.00 0.08 0.05 64 1001.4
20260830170008 19 306 12.9 25.7 0.00 0.08 0.05 64 1001.3
20260830164509 20 284 12.9 22.5 0.00 0.08 0.05 63 1001.2
20260830163010 20 302 11.3 19.3 0.00 0.08 0.05 64 1001.1
20260830161509 20 242 6.4 17.7 0.00 0.08 0.05 65 1000.9
20260830160009 20 252 11.3 20.9 0.00 0.08 0.05 64 1000.8
20260830154509 20 228 14.5 22.5 0.00 0.08 0.05 65 1000.7
20260830153008 20 227 12.9 20.9 0.00 0.08 0.05 64 1000.7
20260830151509 20 271 11.3 17.7 0.00 0.08 0.05 63 1000.6
20260830150024 20 219 9.7 20.9 0.00 0.08 0.05 65 1000.7
20260830144514 20 258 12.9 24.1 0.00 0.08 0.05 66 1000.7
20260830143009 20 218 11.3 19.3 0.00 0.08 0.05 66 1000.6
20260830141510 20 232 4.8 19.3 0.00 0.08 0.05 71 1000.5